Cincinnati, OH

5:07 AM EST on February 12, 2016 (GMT -0500)
Cincinnati Municipal-Lunken

Weather History for KLUK - October, 2013

Change the Weather History Date:

Sunday, October 6, 2013

  Actual Average (KCVG) Record (KCVG)
Temperature  
Mean Temperature 64 °F 59 °F  
Max Temperature 73 °F 70 °F 91 °F (1941)
Min Temperature 55 °F 49 °F 29 °F (1980)
Degree Days  
Heating Degree Days 1 7  
Month to date heating degree days 38  
Since 1 July heating degree days 96  
Cooling Degree Days 0 1  
Month to date cooling degree days 8  
Year to date cooling degree days 1113  
Growing Degree Days 14 (Base 50)    
Moisture  
Dew Point 65 °F    
Average Humidity 95    
Maximum Humidity 100    
Minimum Humidity 82    
Precipitation  
Precipitation 2.26 in 0.11 in 2.82 in (1910)
Month to date precipitation 0.60  
Year to date precipitation 33.02  
Snow  
Snow 0.00 in 0.00 in - ()
Month to date snowfall 0.0  
Since 1 July snowfall 0.0  
Since 1 September snowfall 0.0  
Snow Depth -    
Sea Level Pressure  
Sea Level Pressure 29.86 in    
Wind  
Wind Speed 6 mph (SW)    
Max Wind Speed 20 mph    
Max Gust Speed 31 mph    
Visibility 6 miles    
Events Rain , Thunderstorm    
T = Trace of Precipitation, MM = Missing Value Source: NWS Daily Summary

Daily Weather History Graph

Daily Weather History Graph

Search for Another Location

Airport or City:

Trip Planner

Search our weather history database for the weather conditions in past years. The results will help you decide how hot, cold, wet, or windy it might be!

Date:

Astronomy

Oct. 06, 2013 Rise Set
Actual Time 7:38 AM EDT 7:12 PM EDT
Civil Twilight 7:11 AM EDT 7:38 PM EDT
Nautical Twilight 6:40 AM EDT 8:09 PM EDT
Astronomical Twilight 6:09 AM EDT 8:40 PM EDT
Moon 9:21 AM EDT (10/6) 8:12 PM EDT (10/6)
Length of Visible Light 12h 26m
Length of Day
11h 33m
Waxing Crescent, 3% of the Moon is Illuminated
Oct 6
Waxing Crescent
Oct 11
First Quarter
Oct 18
Full
Oct 26
Last Quarter
Nov 3
New

Hourly Weather History & Observations

Time (EDT) Temp. Dew Point Humidity Pressure Visibility Wind Dir Wind Speed Gust Speed Precip Events Conditions
12:07 AM 69.8 °F 66.2 °F 88% 29.98 in 1.8 mi SW 4.6 mph - 0.12 in Rain , Thunderstorm Heavy Thunderstorms and Rain
12:38 AM 66.2 °F 66.2 °F 100% 29.97 in 0.8 mi Calm Calm - 0.50 in Rain , Thunderstorm Heavy Rain
12:48 AM 66.2 °F 66.2 °F 100% 29.97 in 1.0 mi SE 6.9 mph - 0.62 in Rain , Thunderstorm Heavy Rain
12:53 AM 66.9 °F 66.0 °F 97% 29.96 in 2.5 mi SE 5.8 mph - 0.64 in Rain , Thunderstorm Rain
1:00 AM 66.2 °F 66.2 °F 100% 29.97 in 3.0 mi SE 3.5 mph - 0.04 in Rain , Thunderstorm Heavy Rain
1:24 AM 66.2 °F 66.2 °F 100% 29.98 in 1.8 mi Calm Calm - 0.16 in Rain , Thunderstorm Heavy Rain
1:31 AM 66.2 °F 66.2 °F 100% 29.98 in 1.5 mi Calm Calm - 0.20 in Rain Heavy Rain
1:41 AM 66.2 °F 66.2 °F 100% 29.97 in 2.0 mi Calm Calm - 0.25 in Rain Heavy Rain
1:53 AM 66.0 °F 66.0 °F 100% 29.96 in 2.0 mi Calm Calm - 0.30 in Rain Heavy Rain
2:07 AM 66.2 °F 66.2 °F 100% 29.96 in 4.0 mi East 3.5 mph - 0.05 in Rain Rain
2:53 AM 66.0 °F 66.0 °F 100% 29.94 in 2.5 mi Calm Calm - 0.22 in Rain Heavy Rain
3:08 AM 66.2 °F 66.2 °F 100% 29.93 in 6.0 mi ESE 3.5 mph - 0.02 in Rain Light Rain
3:53 AM 66.0 °F 64.9 °F 96% 29.89 in 10.0 mi East 4.6 mph - 0.03 in   Mostly Cloudy
4:53 AM 66.0 °F 64.0 °F 93% 29.87 in 10.0 mi Calm Calm - N/A   Partly Cloudy
5:33 AM 66.2 °F 64.4 °F 94% 29.89 in 10.0 mi Calm Calm - N/A   Scattered Clouds
5:53 AM 66.0 °F 64.9 °F 96% 29.88 in 10.0 mi ESE 3.5 mph - N/A   Overcast
6:21 AM 68.0 °F 64.4 °F 88% 29.92 in 10.0 mi WSW 11.5 mph 19.6 mph N/A   Overcast
6:53 AM 66.9 °F 64.9 °F 93% 29.91 in 10.0 mi WSW 3.5 mph - 0.00 in   Overcast
7:53 AM 66.0 °F 64.9 °F 96% 29.88 in 10.0 mi Variable 3.5 mph - N/A   Overcast
8:31 AM 66.2 °F 66.2 °F 100% 29.90 in 10.0 mi SW 4.6 mph - N/A   Overcast
8:53 AM 66.9 °F 66.0 °F 97% 29.91 in 2.0 mi WNW 8.1 mph - 0.06 in Rain Heavy Rain
9:07 AM 66.2 °F 66.2 °F 100% 29.90 in 2.0 mi Variable 4.6 mph - 0.14 in Rain Rain
9:18 AM 66.2 °F 66.2 °F 100% 29.89 in 2.0 mi Variable 4.6 mph - 0.18 in Rain Rain
9:28 AM 66.2 °F 64.4 °F 94% 29.88 in 6.0 mi East 5.8 mph - 0.20 in Rain Rain
9:53 AM 66.9 °F 64.9 °F 93% 29.88 in 10.0 mi SSW 3.5 mph - 0.20 in Rain Light Rain
10:53 AM 68.0 °F 66.0 °F 93% 29.88 in 4.0 mi South 10.4 mph 16.1 mph 0.14 in Rain Rain
11:53 AM 68.0 °F 66.0 °F 93% 29.85 in 7.0 mi SSE 6.9 mph - 0.04 in Rain Light Rain
12:53 PM 69.1 °F 66.9 °F 93% 29.82 in 10.0 mi South 8.1 mph - 0.03 in   Mostly Cloudy
1:38 PM 71.6 °F 68.0 °F 88% 29.80 in 10.0 mi South 9.2 mph - N/A   Mostly Cloudy
1:53 PM 72.0 °F 66.9 °F 84% 29.78 in 10.0 mi South 11.5 mph 18.4 mph N/A   Mostly Cloudy
2:53 PM 73.9 °F 68.0 °F 82% 29.74 in 10.0 mi South 18.4 mph 24.2 mph N/A   Mostly Cloudy
3:53 PM 72.0 °F 68.0 °F 87% 29.73 in 10.0 mi SSW 11.5 mph 17.3 mph 0.00 in Rain Light Rain
4:10 PM 69.8 °F 66.2 °F 88% 29.75 in 2.0 mi West 19.6 mph 31.1 mph 0.05 in Rain Rain
4:13 PM 66.2 °F 66.2 °F 100% 29.76 in 2.5 mi West 19.6 mph 31.1 mph 0.06 in Rain Heavy Rain
4:21 PM 66.2 °F 66.2 °F 100% 29.76 in 3.0 mi West 15.0 mph - 0.10 in Rain Rain
4:29 PM 64.4 °F - N/A% 29.76 in 2.5 mi WSW 16.1 mph - 0.22 in Rain Heavy Rain
4:51 PM 64.4 °F - N/A% 29.76 in 2.5 mi West 15.0 mph - 0.25 in Rain Light Rain
4:53 PM 64.9 °F - N/A% 29.75 in 10.0 mi West 12.7 mph - 0.25 in Rain Light Rain
5:22 PM 64.4 °F - N/A% 29.77 in 10.0 mi WSW 11.5 mph - 0.00 in   Overcast
5:48 PM 62.6 °F - N/A% 29.79 in 2.0 mi WSW 11.5 mph 24.2 mph 0.06 in Rain Heavy Rain
5:53 PM 63.0 °F - N/A% 29.78 in 2.0 mi WSW 8.1 mph - 0.06 in Rain Light Rain
6:00 PM 62.6 °F - N/A% 29.79 in 4.0 mi WSW 8.1 mph - 0.01 in Rain Light Rain
6:37 PM 62.6 °F - N/A% 29.79 in 10.0 mi West 11.5 mph - 0.01 in   Overcast
6:42 PM 62.6 °F - N/A% 29.79 in 10.0 mi West 12.7 mph 20.7 mph 0.01 in   Overcast
6:53 PM 62.1 °F - N/A% 29.79 in 10.0 mi West 9.2 mph 18.4 mph 0.01 in   Overcast
7:32 PM 57.2 °F - N/A% 29.83 in 2.5 mi West 10.4 mph - 0.12 in Rain Heavy Rain
7:49 PM 57.2 °F - N/A% 29.84 in 4.0 mi WSW 8.1 mph - 0.14 in Rain Light Rain
7:53 PM 57.9 °F - N/A% 29.85 in 4.0 mi WSW 8.1 mph - 0.15 in Rain Light Rain
8:53 PM 55.9 °F - N/A% 29.85 in 4.0 mi SW 10.4 mph - 0.09 in Rain Rain
9:53 PM 55.0 °F 54.0 °F 96% 29.83 in 10.0 mi Calm Calm - 0.02 in   Overcast
10:53 PM 55.0 °F 53.1 °F 93% 29.85 in 10.0 mi South 4.6 mph - 0.02 in Rain Light Rain
11:53 PM 55.0 °F 53.1 °F 93% 29.85 in 10.0 mi SW 6.9 mph - 0.00 in   Overcast